Location: Chassagnes
(44.4047°N, 4.1657°E)
Time: 11:53:00
(UTC+00:00)

Cosmos 1697 Rocket - Pass Details

Date: 27 October 2020
Orbit: 831 x 845 km, 71.0° (Epoch: 23 November)

Event Time Altitude Azimuth Distance (km) Brightness Sun altitude
Rises 17:37:51 0° 172° (S) 3,361 5.8 -11.0°
Reaches altitude 10° 17:40:33 10° 161° (SSE) 2,433 5.0 -11.5°
Maximum altitude 17:45:16 29° 103° (ESE) 1,493 3.5 -12.3°
Enters shadow 17:49:48 11° 47° (NE) 2,387 4.6 -13.1°
